QPF
0.00 0.00 0.00 0.00 0.00 0.00 0.00 0.00 0.00 0.00 0.00 0.01 0.01 0.01 0.02 0.02 0.03 0.03 0.03 0.02 0.02 0.02 0.01 0.02 0.03 0.03 0.03 0.01 0.02 0.03 0.04 0.04 0.05 0.06 0.05 0.03 0.03 0.03 0.03 0.03 0.03 0.04 0.03
0.00 0.00 0.00 0.00 0.00 0.00 0.00 0.00 0.00 0.00 0.00 0.01 0.01 0.01 0.01 0.01 0.01 0.02 0.02 0.02 0.03 0.03 0.02 0.01 0.01 0.01 0.02 0.02 0.01 0.01 0.02 0.03 0.04 0.04 0.05 0.03 0.02 0.02 0.03 0.03 0.02 0.03 0.03
0.00 0.00 0.00 0.00 0.00 0.00 0.00 0.00 0.00 0.00 0.01 0.01 0.00 0.00 0.00 0.00 0.00 0.00 0.01 0.03 0.03 0.02 0.02 0.01 0.01 0.01 0.01 0.02 0.02 0.02 0.02 0.02 0.03 0.04 0.04 0.04 0.03 0.02 0.02 0.02 0.03 0.03 0.03
0.00 0.00 0.00 0.00 0.00 0.00 0.00 0.00 0.00 0.00 0.00 0.01 0.01 0.01 0.01 0.01 0.01 0.00 0.01 0.01 0.02 0.02 0.01 0.01 0.02 0.02 0.01 0.01 0.01 0.02 0.02 0.03 0.04 0.03 0.03 0.03 0.02 0.03 0.03 0.03 0.03 0.04 0.04
0.00 0.00 0.00 0.00 0.00 0.00 0.00 0.00 0.00 0.00 0.00 0.00 0.00 0.01 0.01 0.01 0.01 0.00 0.00 0.01 0.01 0.01 0.02 0.01 0.01 0.01 0.00 0.00 0.00 0.01 0.02 0.03 0.04 0.05 0.04 0.04 0.02 0.02 0.03 0.04 0.04 0.05 0.05
0.00 0.00 0.00 0.00 0.00 0.00 0.00 0.00 0.00 0.00 0.00 0.00 0.00 0.00 0.00 0.01 0.00 0.00 0.00 0.00 0.01 0.02 0.02 0.01 0.00 0.00 0.00 0.00 0.00 0.00 0.01 0.01 0.02 0.03 0.03 0.03 0.03 0.03 0.04 0.04 0.06 0.06 0.05
0.00 0.00 0.00 0.00 0.00 0.00 0.00 0.00 0.00 0.00 0.00 0.00 0.00 0.00 0.00 0.00 0.00 0.00 0.00 0.00 0.00 0.01 0.01 0.00 0.00 0.00 0.00 0.01 0.01 0.00 0.01 0.01 0.01 0.01 0.02 0.02 0.02 0.02 0.03 0.03 0.05 0.06 0.07
0.00 0.00 0.00 0.00 0.00 0.00 0.00 0.00 0.00 0.00 0.00 0.00 0.00 0.00 0.00 0.00 0.00 0.00 0.00 0.00 0.00 0.00 0.00 0.00 0.00 0.01 0.01 0.01 0.01 0.01 0.01 0.01 0.01 0.01 0.01 0.02 0.03 0.02 0.02 0.02 0.02 0.04 0.05
0.00 0.00 0.00 0.00 0.00 0.00 0.00 0.00 0.00 0.00 0.00 0.00 0.00 0.00 0.00 0.00 0.00 0.00 0.00 0.00 0.00 0.00 0.01 0.01 0.01 0.01 0.00 0.00 0.00 0.01 0.01 0.02 0.01 0.01 0.00 0.00 0.01 0.01 0.01 0.01 0.02 0.03 0.03
0.00 0.00 0.00 0.00 0.00 0.00 0.00 0.00 0.00 0.00 0.00 0.00 0.00 0.00 0.00 0.00 0.00 0.00 0.00 0.01 0.01 0.01 0.01 0.01 0.00 0.00 0.00 0.00 0.00 0.01 0.02 0.02 0.01 0.01 0.01 0.01 0.01 0.02 0.01 0.02 0.03 0.05 0.05
0.00 0.00 0.00 0.00 0.00 0.00 0.00 0.00 0.00 0.00 0.00 0.00 0.00 0.00 0.00 0.00 0.00 0.00 0.00 0.00 0.01 0.01 0.01 0.01 0.00 0.00 0.00 0.00 0.00 0.01 0.02 0.02 0.02 0.01 0.01 0.02 0.02 0.03 0.03 0.04 0.05 0.06 0.06
0.00 0.00 0.00 0.00 0.00 0.00 0.00 0.00 0.00 0.00 0.00 0.00 0.00 0.00 0.00 0.00 0.00 0.00 0.00 0.00 0.00 0.00 0.01 0.01 0.00 0.00 0.00 0.00 0.00 0.00 0.00 0.01 0.03 0.03 0.02 0.02 0.03 0.03 0.03 0.04 0.04 0.04 0.04
0.00 0.00 0.00 0.00 0.00 0.00 0.00 0.00 0.00 0.00 0.00 0.00 0.00 0.00 0.00 0.00 0.00 0.00 0.00 0.00 0.00 0.00 0.00 0.00 0.00 0.00 0.00 0.00 0.00 0.00 0.00 0.01 0.02 0.02 0.02 0.02 0.02 0.03 0.02 0.03 0.04 0.04 0.05
0.00 0.00 0.00 0.00 0.00 0.00 0.00 0.00 0.00 0.00 0.00 0.00 0.00 0.00 0.00 0.00 0.00 0.00 0.00 0.00 0.00 0.00 0.00 0.00 0.00 0.00 0.00 0.00 0.00 0.00 0.01 0.01 0.01 0.01 0.01 0.02 0.02 0.02 0.02 0.03 0.04 0.05 0.05
0.00 0.00 0.00 0.00 0.00 0.00 0.00 0.00 0.00 0.00 0.00 0.00 0.00 0.00 0.00 0.00 0.00 0.00 0.00 0.00 0.00 0.00 0.00 0.00 0.00 0.00 0.01 0.01 0.01 0.01 0.01 0.01 0.01 0.01 0.01 0.01 0.01 0.01 0.02 0.03 0.03 0.03 0.03
0.00 0.00 0.00 0.00 0.00 0.00 0.00 0.00 0.00 0.00 0.00 0.00 0.00 0.00 0.00 0.00 0.00 0.00 0.00 0.00 0.00 0.00 0.00 0.00 0.00 0.00 0.01 0.01 0.01 0.01 0.01 0.00 0.00 0.00 0.00 0.01 0.01 0.01 0.01 0.02 0.02 0.02 0.02
0.00 0.00 0.00 0.00 0.00 0.00 0.00 0.00 0.00 0.00 0.00 0.00 0.00 0.00 0.00 0.00 0.00 0.00 0.00 0.00 0.00 0.00 0.00 0.00 0.00 0.00 0.00 0.00 0.00 0.00 0.00 0.00 0.00 0.00 0.00 0.01 0.01 0.01 0.01 0.01 0.01 0.02 0.02
0.00 0.00 0.00 0.00 0.00 0.00 0.00 0.00 0.00 0.00 0.00 0.00 0.00 0.00 0.00 0.00 0.00 0.00 0.00 0.00 0.00 0.00 0.00 0.00 0.00 0.00 0.00 0.00 0.00 0.00 0.00 0.00 0.00 0.00 0.00 0.00 0.00 0.00 0.01 0.01 0.01 0.01 0.01
0.00 0.00 0.00 0.00 0.00 0.00 0.00 0.00 0.00 0.00 0.00 0.00 0.00 0.00 0.00 0.00 0.00 0.00 0.00 0.00 0.00 0.00 0.00 0.00 0.00 0.00 0.00 0.00 0.00 0.00 0.00 0.00 0.00 0.00 0.00 0.00 0.00 0.00 0.00 0.00 0.00 0.00 0.00
0.00 0.00 0.00 0.00 0.00 0.00 0.00 0.00 0.00 0.00 0.00 0.00 0.00 0.00 0.00 0.00 0.00 0.00 0.00 0.00 0.00 0.00 0.00 0.00 0.00 0.00 0.00 0.00 0.00 0.00 0.00 0.00 0.00 0.00 0.00 0.00 0.00 0.00 0.00 0.00 0.00 0.00 0.00
0.00 0.00 0.00 0.00 0.00 0.00 0.00 0.00 0.00 0.00 0.00 0.00 0.00 0.00 0.00 0.00 0.00 0.00 0.00 0.00 0.00 0.00 0.00 0.00 0.00 0.00 0.00 0.00 0.00 0.00 0.00 0.00 0.00 0.00 0.00 0.00 0.00 0.00 0.00 0.00 0.00 0.00 0.00
0.00 0.00 0.00 0.00 0.00 0.00 0.00 0.00 0.00 0.00 0.00 0.00 0.00 0.00 0.00 0.00 0.00 0.00 0.00 0.00 0.00 0.00 0.00 0.00 0.00 0.00 0.00 0.00 0.00 0.00 0.00 0.00 0.00 0.00 0.00 0.00 0.00 0.00 0.00 0.00 0.00 0.00 0.00
0.00 0.00 0.00 0.00 0.00 0.00 0.00 0.00 0.00 0.00 0.00 0.00 0.00 0.00 0.00 0.00 0.00 0.00 0.00 0.00 0.00 0.00 0.00 0.00 0.00 0.00 0.00 0.00 0.00 0.00 0.00 0.00 0.00 0.00 0.00 0.00 0.00 0.00 0.00 0.00 0.00 0.00 0.00
0.00 0.00 0.00 0.00 0.00 0.00 0.00 0.00 0.00 0.00 0.00 0.00 0.00 0.00 0.00 0.00 0.00 0.00 0.00 0.00 0.00 0.00 0.00 0.00 0.00 0.00 0.00 0.00 0.00 0.00 0.00 0.00 0.00 0.00 0.00 0.00 0.00 0.00 0.00 0.00 0.00 0.00 0.00
0.01 0.00 0.00 0.00 0.00 0.00 0.00 0.00 0.00 0.00 0.00 0.00 0.00 0.00 0.00 0.00 0.00 0.00 0.00 0.00 0.00 0.00 0.00 0.00 0.00 0.00 0.00 0.00 0.00 0.00 0.00 0.00 0.00 0.00 0.00 0.00 0.00 0.00 0.00 0.00 0.00 0.00 0.00
0.01 0.01 0.01 0.00 0.00 0.00 0.00 0.00 0.00 0.00 0.00 0.00 0.00 0.00 0.00 0.00 0.00 0.00 0.00 0.00 0.00 0.00 0.00 0.00 0.00 0.00 0.00 0.00 0.00 0.00 0.00 0.00 0.00 0.00 0.00 0.00 0.00 0.00 0.00 0.00 0.00 0.00 0.00
MSLP
1009.57 1009.85 1010.11 1010.34 1010.54 1010.71 1010.86 1011.00 1011.15 1011.33 1011.53 1011.76 1011.99 1012.22 1012.41 1012.57 1012.67 1012.73 1012.76 1012.78 1012.82 1012.89 1012.99 1013.13 1013.29 1013.45 1013.59 1013.68 1013.70 1013.65 1013.53 1013.34 1013.11 1012.84 1012.56 1012.28 1012.02 1011.78 1011.56 1011.37 1011.22 1011.11 1011.03
1009.16 1009.42 1009.66 1009.90 1010.11 1010.31 1010.49 1010.68 1010.87 1011.08 1011.30 1011.54 1011.78 1012.01 1012.20 1012.35 1012.45 1012.51 1012.54 1012.55 1012.57 1012.62 1012.69 1012.80 1012.93 1013.08 1013.21 1013.32 1013.38 1013.39 1013.34 1013.24 1013.09 1012.90 1012.68 1012.45 1012.21 1011.97 1011.75 1011.54 1011.35 1011.19 1011.07
1008.75 1009.02 1009.28 1009.53 1009.76 1009.98 1010.19 1010.39 1010.59 1010.81 1011.04 1011.28 1011.52 1011.74 1011.93 1012.08 1012.18 1012.24 1012.27 1012.29 1012.30 1012.33 1012.38 1012.46 1012.57 1012.70 1012.83 1012.96 1013.06 1013.12 1013.14 1013.12 1013.05 1012.94 1012.79 1012.60 1012.40 1012.18 1011.95 1011.73 1011.52 1011.32 1011.15
1008.29 1008.62 1008.92 1009.21 1009.46 1009.69 1009.90 1010.11 1010.31 1010.52 1010.73 1010.96 1011.18 1011.39 1011.58 1011.73 1011.84 1011.91 1011.95 1011.98 1011.99 1012.01 1012.05 1012.12 1012.21 1012.33 1012.46 1012.60 1012.73 1012.84 1012.92 1012.97 1012.97 1012.92 1012.84 1012.71 1012.54 1012.34 1012.13 1011.90 1011.66 1011.44 1011.23
1007.76 1008.16 1008.53 1008.86 1009.15 1009.39 1009.61 1009.80 1009.98 1010.16 1010.35 1010.55 1010.75 1010.95 1011.13 1011.29 1011.42 1011.51 1011.57 1011.60 1011.63 1011.65 1011.69 1011.75 1011.84 1011.95 1012.09 1012.24 1012.39 1012.54 1012.66 1012.76 1012.82 1012.83 1012.79 1012.71 1012.57 1012.40 1012.20 1011.97 1011.73 1011.48 1011.23
1007.11 1007.62 1008.07 1008.45 1008.78 1009.04 1009.25 1009.42 1009.58 1009.73 1009.89 1010.07 1010.25 1010.44 1010.62 1010.78 1010.92 1011.03 1011.10 1011.16 1011.20 1011.24 1011.28 1011.35 1011.44 1011.55 1011.69 1011.85 1012.02 1012.19 1012.35 1012.47 1012.57 1012.61 1012.61 1012.56 1012.46 1012.31 1012.13 1011.91 1011.66 1011.40 1011.12
1006.36 1006.95 1007.49 1007.94 1008.30 1008.58 1008.80 1008.97 1009.11 1009.24 1009.38 1009.54 1009.70 1009.88 1010.06 1010.22 1010.37 1010.49 1010.58 1010.65 1010.71 1010.76 1010.81 1010.89 1010.98 1011.10 1011.25 1011.42 1011.60 1011.78 1011.95 1012.10 1012.21 1012.27 1012.29 1012.26 1012.18 1012.05 1011.88 1011.67 1011.43 1011.16 1010.87
1005.51 1006.19 1006.79 1007.30 1007.72 1008.03 1008.27 1008.45 1008.59 1008.72 1008.86 1009.00 1009.16 1009.33 1009.51 1009.67 1009.82 1009.94 1010.04 1010.11 1010.17 1010.23 1010.29 1010.37 1010.47 1010.60 1010.76 1010.93 1011.12 1011.31 1011.48 1011.63 1011.75 1011.82 1011.85 1011.82 1011.75 1011.63 1011.48 1011.28 1011.05 1010.78 1010.49
1004.63 1005.36 1006.02 1006.58 1007.04 1007.40 1007.68 1007.89 1008.06 1008.22 1008.37 1008.53 1008.69 1008.87 1009.03 1009.19 1009.32 1009.43 1009.51 1009.58 1009.63 1009.67 1009.74 1009.82 1009.93 1010.07 1010.23 1010.42 1010.62 1010.81 1010.99 1011.14 1011.24 1011.31 1011.33 1011.30 1011.23 1011.12 1010.96 1010.78 1010.55 1010.30 1010.01
1003.77 1004.53 1005.22 1005.82 1006.33 1006.74 1007.07 1007.35 1007.57 1007.78 1007.97 1008.16 1008.35 1008.52 1008.69 1008.83 1008.94 1009.01 1009.07 1009.10 1009.12 1009.16 1009.21 1009.29 1009.41 1009.56 1009.74 1009.94 1010.15 1010.35 1010.52 1010.66 1010.76 1010.81 1010.82 1010.78 1010.69 1010.57 1010.42 1010.23 1010.02 1009.77 1009.49
1002.99 1003.73 1004.43 1005.07 1005.62 1006.10 1006.50 1006.85 1007.16 1007.44 1007.69 1007.93 1008.15 1008.34 1008.49 1008.61 1008.69 1008.73 1008.74 1008.73 1008.72 1008.73 1008.76 1008.84 1008.96 1009.13 1009.33 1009.55 1009.77 1009.98 1010.16 1010.29 1010.38 1010.41 1010.39 1010.33 1010.22 1010.08 1009.92 1009.72 1009.51 1009.26 1008.99
1002.30 1003.01 1003.70 1004.35 1004.96 1005.50 1005.99 1006.43 1006.84 1007.20 1007.54 1007.84 1008.09 1008.30 1008.45 1008.55 1008.59 1008.58 1008.54 1008.49 1008.44 1008.43 1008.45 1008.53 1008.66 1008.84 1009.07 1009.31 1009.55 1009.77 1009.95 1010.08 1010.15 1010.16 1010.11 1010.01 1009.88 1009.71 1009.52 1009.31 1009.08 1008.83 1008.56
1001.70 1002.36 1003.03 1003.70 1004.35 1004.96 1005.54 1006.08 1006.59 1007.06 1007.48 1007.84 1008.14 1008.37 1008.53 1008.61 1008.62 1008.57 1008.49 1008.40 1008.32 1008.28 1008.30 1008.38 1008.53 1008.74 1008.98 1009.25 1009.51 1009.75 1009.93 1010.05 1010.10 1010.08 1010.00 1009.86 1009.69 1009.49 1009.26 1009.03 1008.78 1008.53 1008.25
1001.15 1001.76 1002.41 1003.09 1003.77 1004.46 1005.12 1005.77 1006.38 1006.94 1007.45 1007.89 1008.24 1008.49 1008.66 1008.73 1008.72 1008.65 1008.54 1008.43 1008.34 1008.29 1008.31 1008.41 1008.58 1008.81 1009.08 1009.37 1009.65 1009.89 1010.08 1010.19 1010.22 1010.17 1010.05 1009.87 1009.66 1009.42 1009.16 1008.90 1008.64 1008.37 1008.08
1000.59 1001.16 1001.79 1002.48 1003.20 1003.95 1004.70 1005.43 1006.14 1006.79 1007.38 1007.88 1008.29 1008.58 1008.76 1008.84 1008.84 1008.76 1008.65 1008.54 1008.45 1008.42 1008.46 1008.58 1008.77 1009.03 1009.32 1009.63 1009.93 1010.17 1010.35 1010.44 1010.45 1010.37 1010.21 1010.00 1009.75 1009.48 1009.20 1008.92 1008.64 1008.36 1008.07
999.98 1000.50 1001.13 1001.83 1002.59 1003.39 1004.21 1005.02 1005.80 1006.53 1007.19 1007.76 1008.22 1008.55 1008.77 1008.88 1008.89 1008.84 1008.76 1008.67 1008.61 1008.61 1008.68 1008.83 1009.05 1009.33 1009.64 1009.96 1010.26 1010.50 1010.66 1010.74 1010.72 1010.62 1010.44 1010.21 1009.94 1009.65 1009.35 1009.06 1008.78 1008.50 1008.22
999.28 999.78 1000.39 1001.10 1001.89 1002.73 1003.60 1004.47 1005.32 1006.12 1006.84 1007.46 1007.97 1008.36 1008.62 1008.78 1008.85 1008.84 1008.81 1008.77 1008.76 1008.80 1008.91 1009.10 1009.34 1009.64 1009.97 1010.29 1010.58 1010.81 1010.96 1011.02 1010.98 1010.86 1010.67 1010.43 1010.15 1009.87 1009.58 1009.30 1009.03 1008.76 1008.50
998.50 998.98 999.58 1000.29 1001.10 1001.96 1002.87 1003.78 1004.67 1005.52 1006.29 1006.97 1007.53 1007.97 1008.30 1008.53 1008.66 1008.73 1008.76 1008.79 1008.85 1008.95 1009.10 1009.32 1009.60 1009.91 1010.23 1010.55 1010.83 1011.04 1011.18 1011.22 1011.18 1011.06 1010.87 1010.64 1010.38 1010.11 1009.85 1009.60 1009.36 1009.12 1008.88
997.68 998.13 998.72 999.42 1000.23 1001.10 1002.02 1002.96 1003.87 1004.75 1005.56 1006.29 1006.91 1007.42 1007.82 1008.12 1008.34 1008.50 1008.62 1008.73 1008.86 1009.02 1009.22 1009.48 1009.77 1010.09 1010.41 1010.72 1010.98 1011.18 1011.30 1011.34 1011.30 1011.19 1011.03 1010.82 1010.60 1010.37 1010.15 1009.94 1009.74 1009.54 1009.32
996.90 997.31 997.87 998.55 999.34 1000.20 1001.11 1002.05 1002.97 1003.87 1004.71 1005.47 1006.15 1006.72 1007.20 1007.60 1007.91 1008.16 1008.38 1008.58 1008.78 1009.01 1009.26 1009.55 1009.86 1010.18 1010.50 1010.79 1011.04 1011.23 1011.35 1011.40 1011.37 1011.28 1011.15 1010.99 1010.81 1010.63 1010.46 1010.29 1010.13 1009.97 1009.78
996.25 996.62 997.13 997.77 998.51 999.34 1000.22 1001.13 1002.05 1002.94 1003.80 1004.60 1005.32 1005.97 1006.53 1007.01 1007.42 1007.77 1008.08 1008.37 1008.65 1008.94 1009.24 1009.55 1009.88 1010.21 1010.52 1010.81 1011.05 1011.24 1011.37 1011.43 1011.42 1011.37 1011.27 1011.15 1011.02 1010.89 1010.76 1010.64 1010.51 1010.37 1010.20
995.81 996.13 996.58 997.16 997.84 998.61 999.44 1000.30 1001.19 1002.07 1002.93 1003.76 1004.52 1005.23 1005.86 1006.43 1006.93 1007.38 1007.78 1008.15 1008.50 1008.84 1009.19 1009.53 1009.87 1010.21 1010.53 1010.82 1011.06 1011.26 1011.39 1011.47 1011.50 1011.48 1011.42 1011.34 1011.24 1011.14 1011.05 1010.94 1010.83 1010.71 1010.54
995.69 995.93 996.31 996.81 997.41 998.10 998.86 999.67 1000.51 1001.36 1002.21 1003.04 1003.84 1004.59 1005.28 1005.92 1006.50 1007.03 1007.51 1007.95 1008.37 1008.76 1009.14 1009.52 1009.88 1010.23 1010.55 1010.85 1011.11 1011.31 1011.47 1011.57 1011.62 1011.62 1011.59 1011.54 1011.46 1011.38 1011.29 1011.19 1011.07 1010.93 1010.76
995.90 996.08 996.38 996.79 997.30 997.90 998.57 999.30 1000.08 1000.88 1001.71 1002.53 1003.34 1004.12 1004.85 1005.55 1006.19 1006.78 1007.32 1007.82 1008.29 1008.73 1009.14 1009.54 1009.92 1010.29 1010.63 1010.93 1011.20 1011.43 1011.60 1011.72 1011.78 1011.80 1011.78 1011.73 1011.65 1011.56 1011.45 1011.34 1011.20 1011.04 1010.84
996.43 996.56 996.79 997.11 997.53 998.03 998.61 999.25 999.95 1000.70 1001.48 1002.27 1003.07 1003.86 1004.62 1005.35 1006.03 1006.66 1007.24 1007.78 1008.28 1008.75 1009.19 1009.61 1010.01 1010.39 1010.74 1011.06 1011.34 1011.58 1011.76 1011.88 1011.96 1011.98 1011.95 1011.88 1011.78 1011.66 1011.52 1011.37 1011.19 1011.00 1010.78
997.25 997.34 997.51 997.75 998.08 998.49 998.97 999.52 1000.14 1000.82 1001.54 1002.30 1003.07 1003.85 1004.60 1005.34 1006.03 1006.68 1007.28 1007.84 1008.36 1008.84 1009.30 1009.73 1010.13 1010.52 1010.88 1011.20 1011.49 1011.72 1011.91 1012.03 1012.09 1012.09 1012.04 1011.94 1011.81 1011.64 1011.46 1011.26 1011.05 1010.82 1010.57
Thickness
5738 5735 5731 5726 5723 5719 5714 5710 5707 5703 5700 5697 5694 5691 5688 5685 5682 5679 5676 5675 5673 5672 5672 5672 5671 5672 5671 5673 5675 5676 5677 5678 5675 5681 5689 5694 5697 5699 5702 5704 5706 5709 5711
5739 5735 5731 5727 5723 5719 5715 5712 5709 5705 5702 5698 5696 5692 5688 5685 5682 5679 5676 5675 5672 5670 5670 5669 5669 5670 5669 5669 5670 5671 5673 5675 5674 5674 5680 5685 5689 5693 5695 5697 5701 5704 5706
5739 5735 5731 5727 5723 5720 5716 5713 5710 5706 5703 5700 5696 5692 5688 5685 5682 5680 5677 5675 5673 5671 5670 5667 5667 5666 5665 5666 5667 5668 5669 5672 5672 5671 5672 5677 5681 5685 5687 5690 5693 5696 5699
5739 5734 5731 5728 5724 5721 5718 5714 5710 5707 5703 5700 5697 5694 5690 5686 5683 5680 5677 5675 5673 5672 5670 5668 5667 5665 5664 5663 5664 5664 5666 5666 5667 5666 5667 5670 5673 5677 5679 5679 5681 5686 5690
5738 5733 5731 5729 5726 5722 5717 5713 5710 5706 5703 5700 5697 5694 5691 5687 5683 5679 5676 5675 5672 5671 5670 5669 5667 5666 5664 5662 5661 5660 5660 5660 5661 5661 5662 5663 5665 5667 5668 5672 5672 5676 5681
5739 5734 5732 5729 5726 5721 5717 5713 5709 5706 5702 5699 5696 5693 5690 5688 5684 5681 5676 5673 5671 5670 5669 5668 5668 5665 5664 5662 5661 5660 5659 5657 5656 5656 5656 5657 5658 5661 5663 5665 5665 5666 5669
5739 5735 5732 5728 5724 5720 5717 5712 5708 5704 5701 5698 5695 5693 5690 5687 5685 5681 5677 5673 5670 5669 5669 5668 5668 5667 5664 5661 5660 5660 5659 5658 5657 5655 5653 5654 5655 5657 5658 5658 5659 5660 5662
5738 5735 5731 5727 5722 5719 5715 5711 5708 5705 5702 5698 5695 5693 5690 5688 5685 5681 5678 5673 5671 5670 5670 5669 5667 5665 5663 5660 5658 5657 5656 5657 5656 5655 5654 5653 5654 5654 5654 5654 5654 5656 5660
5737 5734 5731 5727 5722 5717 5713 5710 5707 5704 5701 5699 5696 5694 5690 5688 5685 5681 5677 5673 5671 5671 5671 5670 5668 5664 5662 5660 5656 5654 5653 5653 5655 5654 5653 5652 5652 5652 5651 5649 5649 5649 5650
5737 5735 5732 5728 5722 5717 5713 5710 5708 5704 5701 5698 5696 5694 5691 5687 5684 5680 5676 5672 5670 5670 5670 5669 5667 5663 5660 5657 5653 5650 5648 5648 5649 5649 5648 5648 5648 5649 5649 5647 5645 5643 5644
5738 5734 5730 5726 5721 5717 5713 5710 5706 5703 5699 5696 5694 5692 5690 5686 5683 5679 5674 5670 5668 5667 5666 5664 5662 5660 5657 5654 5650 5647 5645 5644 5644 5643 5643 5643 5644 5644 5644 5644 5643 5641 5639
5735 5729 5726 5723 5719 5716 5710 5706 5704 5700 5696 5693 5690 5688 5686 5684 5680 5676 5673 5669 5666 5663 5661 5660 5658 5656 5653 5650 5646 5644 5642 5641 5639 5638 5637 5636 5636 5637 5638 5638 5639 5638 5638
5729 5724 5721 5718 5715 5712 5706 5702 5699 5696 5692 5689 5687 5683 5682 5680 5676 5673 5670 5667 5664 5659 5657 5655 5653 5651 5648 5645 5642 5640 5637 5635 5633 5632 5630 5630 5630 5631 5632 5632 5633 5633 5634
5721 5718 5715 5712 5709 5706 5702 5698 5694 5690 5687 5685 5682 5679 5676 5673 5668 5665 5662 5661 5659 5655 5653 5650 5648 5645 5642 5639 5636 5633 5631 5629 5627 5625 5624 5624 5624 5624 5624 5624 5624 5625 5625
5716 5713 5710 5707 5704 5699 5694 5689 5687 5682 5681 5679 5676 5673 5669 5664 5659 5658 5655 5654 5651 5649 5647 5645 5641 5638 5634 5631 5629 5627 5624 5622 5620 5618 5617 5616 5616 5616 5615 5616 5616 5616 5615
5710 5708 5705 5701 5697 5692 5685 5677 5674 5674 5673 5672 5670 5666 5661 5657 5654 5652 5650 5648 5647 5645 5642 5638 5633 5630 5626 5623 5620 5618 5616 5613 5612 5610 5609 5608 5607 5607 5606 5607 5607 5606 5605
5705 5703 5700 5697 5693 5687 5681 5674 5666 5660 5660 5660 5659 5657 5654 5649 5647 5644 5643 5641 5639 5638 5633 5629 5625 5621 5618 5614 5611 5609 5606 5604 5603 5601 5599 5598 5598 5597 5597 5596 5596 5595 5595
5699 5698 5695 5692 5688 5684 5679 5673 5667 5660 5654 5649 5647 5646 5645 5642 5639 5637 5635 5632 5630 5627 5623 5620 5616 5612 5609 5605 5602 5599 5597 5595 5593 5591 5589 5588 5587 5587 5586 5585 5584 5584 5583
5691 5690 5689 5686 5683 5679 5674 5669 5664 5659 5654 5648 5641 5636 5636 5634 5631 5629 5627 5625 5622 5618 5614 5610 5607 5604 5600 5597 5594 5591 5588 5585 5583 5581 5579 5577 5576 5575 5574 5573 5573 5573 5573
5682 5682 5681 5678 5675 5672 5668 5664 5660 5656 5651 5645 5639 5634 5628 5626 5623 5621 5619 5617 5614 5610 5606 5602 5598 5595 5592 5588 5585 5582 5579 5576 5573 5571 5568 5566 5565 5564 5563 5562 5561 5560 5560
5670 5671 5671 5668 5666 5664 5661 5658 5654 5650 5646 5642 5637 5631 5627 5623 5620 5616 5612 5609 5606 5602 5597 5593 5590 5586 5582 5579 5575 5572 5569 5565 5562 5559 5557 5554 5553 5551 5550 5550 5549 5548 5547
5658 5658 5659 5658 5657 5655 5653 5651 5647 5643 5639 5634 5626 5622 5619 5616 5613 5609 5605 5601 5597 5593 5589 5585 5580 5576 5572 5568 5565 5561 5557 5553 5550 5547 5544 5542 5540 5538 5537 5536 5535 5535 5534
5645 5646 5646 5647 5646 5645 5642 5640 5638 5634 5630 5625 5620 5614 5610 5607 5604 5600 5596 5592 5588 5583 5579 5575 5570 5566 5562 5558 5554 5549 5544 5539 5536 5534 5531 5528 5527 5525 5524 5523 5522 5521 5520
5631 5633 5634 5634 5634 5633 5631 5630 5628 5625 5621 5616 5611 5606 5602 5599 5595 5591 5587 5582 5577 5573 5569 5564 5560 5555 5551 5546 5541 5536 5531 5527 5524 5521 5518 5515 5514 5513 5511 5510 5508 5507 5506
5616 5619 5621 5622 5622 5621 5620 5619 5617 5614 5611 5606 5602 5598 5593 5589 5585 5581 5576 5571 5567 5562 5557 5553 5548 5543 5539 5534 5528 5523 5519 5515 5511 5508 5506 5504 5502 5500 5499 5497 5495 5494 5492
5600 5604 5607 5609 5609 5608 5608 5607 5605 5603 5599 5596 5592 5587 5583 5578 5574 5570 5565 5560 5555 5550 5545 5541 5536 5531 5526 5521 5516 5511 5507 5503 5500 5497 5495 5493 5491 5489 5487 5486 5484 5482 5480